| time (UTC) | temp C | wind direction | speed KPH | gust KPH | rain 1hr cm | rain 24hr cm | rain mn cm | humidity % | barometer mb |
| 20260504012449 | 14 | 168 | 0.0 | 0.0 | 0.00 | 0.03 | 0.03 | 43 | 1003.1 |
| 20260504011946 | 15 | 168 | 0.0 | 0.0 | 0.00 | 0.03 | 0.03 | 42 | 1003.1 |
| 20260504011442 | 15 | 168 | 0.0 | 0.0 | 0.00 | 0.03 | 0.03 | 42 | 1003.1 |
| 20260504010938 | 15 | 168 | 0.0 | 0.0 | 0.00 | 0.03 | 0.03 | 42 | 1003.1 |
| 20260504010434 | 15 | 170 | 0.0 | 0.0 | 0.00 | 0.03 | 0.03 | 42 | 1003.1 |
| 20260504005930 | 16 | 176 | 0.0 | 0.0 | 0.00 | 0.03 | 0.03 | 40 | 1002.7 |
| 20260504005427 | 16 | 181 | 0.0 | 1.6 | 0.00 | 0.03 | 0.03 | 39 | 1003.1 |
| 20260504004925 | 16 | 175 | 0.0 | 0.0 | 0.00 | 0.03 | 0.03 | 38 | 1003.1 |
| 20260504004422 | 17 | 173 | 0.0 | 0.0 | 0.00 | 0.03 | 0.03 | 36 | 1003.1 |
| 20260504003919 | 17 | 174 | 0.0 | 0.0 | 0.00 | 0.03 | 0.03 | 36 | 1003.1 |
| 20260504003415 | 17 | 168 | 0.0 | 0.0 | 0.00 | 0.03 | 0.03 | 36 | 1003.1 |
| 20260504002912 | 17 | 222 | 0.0 | 1.6 | 0.00 | 0.03 | 0.03 | 34 | 1003.1 |
| 20260504002409 | 17 | 175 | 1.6 | 1.6 | 0.00 | 0.03 | 0.03 | 34 | 1003.4 |
| 20260504001907 | 18 | 263 | 3.2 | 3.2 | 0.00 | 0.03 | 0.03 | 34 | 1003.1 |
| 20260504001404 | 18 | 178 | 1.6 | 1.6 | 0.00 | 0.03 | 0.03 | 33 | 1003.1 |
| 20260504000900 | 18 | 116 | 4.8 | 8.0 | 0.00 | 0.03 | 0.03 | 32 | 1003.1 |
| 20260504000358 | 18 | 294 | 3.2 | 4.8 | 0.00 | 0.03 | 0.03 | 34 | 1003.1 |
| 20260503235855 | 18 | 165 | 0.0 | 0.0 | 0.00 | 0.03 | 0.03 | 32 | 1003.1 |
| 20260503235353 | 18 | 48 | 1.6 | 4.8 | 0.00 | 0.03 | 0.03 | 31 | 1003.1 |
| 20260503234850 | 18 | 308 | 4.8 | 4.8 | 0.00 | 0.03 | 0.03 | 31 | 1003.1 |
| 20260503234348 | 19 | 194 | 1.6 | 3.2 | 0.00 | 0.03 | 0.03 | 31 | 1003.1 |
| 20260503233845 | 20 | 147 | 3.2 | 3.2 | 0.00 | 0.03 | 0.03 | 30 | 1003.1 |
| 20260503233341 | 20 | 245 | 4.8 | 4.8 | 0.00 | 0.03 | 0.03 | 31 | 1003.1 |
| 20260503232838 | 20 | 332 | 1.6 | 3.2 | 0.00 | 0.03 | 0.03 | 31 | 1003.1 |
| 20260503232335 | 20 | 236 | 4.8 | 4.8 | 0.00 | 0.03 | 0.03 | 30 | 1003.4 |
| 20260503231833 | 20 | 331 | 8.0 | 11.3 | 0.00 | 0.03 | 0.03 | 28 | 1003.1 |
| 20260503231330 | 20 | 200 | 0.0 | 1.6 | 0.00 | 0.03 | 0.03 | 31 | 1003.1 |
| 20260503230826 | 20 | 296 | 6.4 | 9.7 | 0.00 | 0.03 | 0.03 | 29 | 1002.7 |
| 20260503230323 | 20 | 270 | 3.2 | 3.2 | 0.00 | 0.03 | 0.03 | 29 | 1003.1 |
| 20260503225821 | 20 | 173 | 4.8 | 8.0 | 0.00 | 0.03 | 0.03 | 29 | 1003.1 |
| 20260503225316 | 20 | 213 | 4.8 | 4.8 | 0.00 | 0.03 | 0.03 | 28 | 1002.7 |
| 20260503224813 | 20 | 216 | 3.2 | 3.2 | 0.00 | 0.03 | 0.03 | 29 | 1003.1 |
| 20260503224310 | 20 | 216 | 4.8 | 8.0 | 0.00 | 0.03 | 0.03 | 29 | 1003.1 |
| 20260503223808 | 21 | 318 | 4.8 | 4.8 | 0.00 | 0.03 | 0.03 | 29 | 1003.1 |
| 20260503223305 | 20 | 91 | 4.8 | 4.8 | 0.00 | 0.03 | 0.03 | 30 | 1002.7 |
| 20260503222801 | 21 | 245 | 4.8 | 8.0 | 0.00 | 0.03 | 0.03 | 30 | 1002.7 |
| 20260503222259 | 21 | 185 | 1.6 | 1.6 | 0.00 | 0.03 | 0.03 | 30 | 1003.1 |
| 20260503221757 | 21 | 215 | 3.2 | 3.2 | 0.00 | 0.03 | 0.03 | 30 | 1003.1 |
| 20260503221255 | 21 | 295 | 6.4 | 9.7 | 0.00 | 0.03 | 0.03 | 32 | 1003.1 |
| 20260503220751 | 21 | 328 | 4.8 | 8.0 | 0.00 | 0.03 | 0.03 | 32 | 1003.1 |
| 20260503220248 | 21 | 177 | 1.6 | 1.6 | 0.00 | 0.03 | 0.03 | 34 | 1002.7 |
| 20260503215745 | 21 | 256 | 3.2 | 4.8 | 0.00 | 0.03 | 0.03 | 33 | 1003.1 |
| 20260503215242 | 21 | 312 | 4.8 | 9.7 | 0.00 | 0.03 | 0.03 | 34 | 1003.1 |
| 20260503214740 | 21 | 305 | 8.0 | 11.3 | 0.00 | 0.03 | 0.03 | 34 | 1003.1 |
| 20260503214236 | 21 | 315 | 1.6 | 3.2 | 0.00 | 0.03 | 0.03 | 35 | 1002.7 |
| 20260503213735 | 21 | 193 | 8.0 | 9.7 | 0.00 | 0.03 | 0.03 | 33 | 1003.1 |
| 20260503213232 | 21 | 97 | 6.4 | 9.7 | 0.00 | 0.03 | 0.03 | 35 | 1002.7 |
| 20260503212728 | 21 | 259 | 8.0 | 9.7 | 0.00 | 0.03 | 0.03 | 35 | 1002.7 |
| 20260503212226 | 21 | 104 | 4.8 | 8.0 | 0.00 | 0.03 | 0.03 | 35 | 1002.7 |
| 20260503211724 | 21 | 184 | 4.8 | 4.8 | 0.00 | 0.03 | 0.03 | 35 | 1002.7 |
| 20260503211219 | 22 | 219 | 3.2 | 4.8 | 0.00 | 0.03 | 0.03 | 35 | 1003.1 |
| 20260503210715 | 22 | 193 | 6.4 | 9.7 | 0.00 | 0.03 | 0.03 | 35 | 1003.1 |
| 20260503210213 | 22 | 238 | 4.8 | 4.8 | 0.00 | 0.03 | 0.03 | 35 | 1002.7 |
| 20260503205708 | 22 | 283 | 6.4 | 9.7 | 0.00 | 0.03 | 0.03 | 34 | 1002.7 |
| 20260503205204 | 21 | 2 | 3.2 | 3.2 | 0.00 | 0.03 | 0.03 | 37 | 1003.1 |
| 20260503204701 | 21 | 240 | 1.6 | 1.6 | 0.00 | 0.03 | 0.03 | 38 | 1003.1 |
| 20260503204159 | 21 | 312 | 1.6 | 3.2 | 0.00 | 0.03 | 0.03 | 38 | 1003.1 |
| 20260503203655 | 21 | 36 | 3.2 | 4.8 | 0.00 | 0.03 | 0.03 | 37 | 1003.1 |
| 20260503203153 | 21 | 161 | 4.8 | 8.0 | 0.00 | 0.03 | 0.03 | 37 | 1003.1 |
| 20260503202650 | 21 | 197 | 4.8 | 8.0 | 0.00 | 0.03 | 0.03 | 37 | 1003.4 |
| 20260503202148 | 22 | 247 | 4.8 | 4.8 | 0.00 | 0.03 | 0.03 | 38 | 1003.4 |
| 20260503201646 | 21 | 180 | 1.6 | 1.6 | 0.00 | 0.03 | 0.03 | 37 | 1003.4 |
| 20260503201143 | 21 | 302 | 3.2 | 4.8 | 0.00 | 0.03 | 0.03 | 34 | 1003.1 |
| 20260503200639 | 21 | 223 | 3.2 | 4.8 | 0.00 | 0.03 | 0.03 | 35 | 1003.4 |
| 20260503200135 | 21 | 164 | 1.6 | 3.2 | 0.00 | 0.03 | 0.03 | 36 | 1003.4 |
| 20260503195633 | 21 | 203 | 4.8 | 8.0 | 0.00 | 0.03 | 0.03 | 37 | 1003.1 |
| 20260503195130 | 21 | 204 | 4.8 | 4.8 | 0.00 | 0.03 | 0.03 | 38 | 1003.4 |
| 20260503194627 | 21 | 242 | 8.0 | 12.9 | 0.00 | 0.03 | 0.03 | 37 | 1003.7 |
| 20260503194122 | 21 | 126 | 3.2 | 4.8 | 0.00 | 0.03 | 0.03 | 38 | 1003.4 |
| 20260503193619 | 21 | 300 | 4.8 | 4.8 | 0.00 | 0.03 | 0.03 | 40 | 1003.4 |
| 20260503193114 | 21 | 198 | 4.8 | 8.0 | 0.00 | 0.03 | 0.03 | 41 | 1003.7 |
| 20260503192610 | 21 | 156 | 1.6 | 3.2 | 0.00 | 0.03 | 0.03 | 42 | 1003.7 |
| 20260503192106 | 21 | 31 | 4.8 | 4.8 | 0.00 | 0.03 | 0.03 | 43 | 1003.4 |
| 20260503191603 | 21 | 277 | 4.8 | 8.0 | 0.00 | 0.03 | 0.03 | 42 | 1003.7 |
| 20260503191100 | 21 | 195 | 3.2 | 3.2 | 0.00 | 0.03 | 0.03 | 44 | 1003.4 |
| 20260503190557 | 21 | 174 | 6.4 | 11.3 | 0.00 | 0.03 | 0.03 | 42 | 1003.7 |
| 20260503190054 | 21 | 139 | 3.2 | 4.8 | 0.00 | 0.03 | 0.03 | 43 | 1003.7 |
| 20260503185551 | 21 | 175 | 0.0 | 1.6 | 0.00 | 0.03 | 0.03 | 43 | 1003.7 |
| 20260503185050 | 20 | 202 | 3.2 | 3.2 | 0.00 | 0.03 | 0.03 | 42 | 1003.7 |
| 20260503184546 | 21 | 176 | 4.8 | 4.8 | 0.00 | 0.03 | 0.03 | 43 | 1003.7 |
| 20260503184043 | 21 | 181 | 1.6 | 1.6 | 0.00 | 0.03 | 0.03 | 45 | 1003.7 |
| 20260503183540 | 21 | 220 | 4.8 | 4.8 | 0.00 | 0.03 | 0.03 | 44 | 1003.4 |
| 20260503183037 | 21 | 262 | 4.8 | 4.8 | 0.00 | 0.03 | 0.03 | 43 | 1003.7 |
| 20260503182536 | 20 | 88 | 4.8 | 9.7 | 0.00 | 0.03 | 0.03 | 40 | 1003.7 |
| 20260503182033 | 20 | 107 | 4.8 | 8.0 | 0.00 | 0.03 | 0.03 | 42 | 1003.7 |
| 20260503181530 | 21 | 221 | 4.8 | 4.8 | 0.00 | 0.03 | 0.03 | 41 | 1003.7 |
| 20260503181026 | 20 | 204 | 3.2 | 3.2 | 0.00 | 0.03 | 0.03 | 44 | 1003.7 |
| 20260503180523 | 20 | 265 | 1.6 | 1.6 | 0.00 | 0.03 | 0.03 | 42 | 1003.7 |
| 20260503180021 | 21 | 131 | 3.2 | 3.2 | 0.00 | 0.03 | 0.03 | 44 | 1004.2 |
| 20260503175518 | 21 | 0 | 4.8 | 4.8 | 0.00 | 0.03 | 0.03 | 42 | 1004.2 |
| 20260503175015 | 20 | 237 | 3.2 | 3.2 | 0.00 | 0.03 | 0.03 | 44 | 1004.2 |
| 20260503174513 | 20 | 107 | 3.2 | 8.0 | 0.00 | 0.03 | 0.03 | 45 | 1004.2 |
| 20260503174008 | 20 | 192 | 3.2 | 4.8 | 0.00 | 0.03 | 0.03 | 45 | 1004.2 |
| 20260503173503 | 20 | 127 | 4.8 | 4.8 | 0.00 | 0.03 | 0.03 | 46 | 1004.2 |
| 20260503173000 | 20 | 134 | 1.6 | 3.2 | 0.00 | 0.03 | 0.03 | 48 | 1004.2 |
| 20260503172458 | 20 | 163 | 3.2 | 4.8 | 0.00 | 0.03 | 0.03 | 47 | 1004.2 |
| 20260503171954 | 20 | 53 | 6.4 | 8.0 | 0.00 | 0.03 | 0.03 | 47 | 1004.2 |
| 20260503171451 | 20 | 52 | 4.8 | 4.8 | 0.00 | 0.03 | 0.03 | 47 | 1004.5 |
| 20260503170948 | 20 | 325 | 6.4 | 8.0 | 0.00 | 0.03 | 0.03 | 47 | 1004.2 |
| 20260503170444 | 19 | 152 | 3.2 | 4.8 | 0.00 | 0.03 | 0.03 | 49 | 1004.2 |
| 20260503150837 | 17 | 257 | 6.4 | 9.7 | 0.00 | 0.03 | 0.03 | 51 | 1004.5 |
| 20260503150333 | 17 | 183 | 4.8 | 4.8 | 0.00 | 0.03 | 0.03 | 51 | 1004.5 |
| 20260503140257 | 15 | 218 | 6.4 | 8.0 | 0.00 | 0.03 | 0.03 | 60 | 1004.9 |
| 20260503131227 | 13 | 212 | 4.8 | 4.8 | 0.00 | 0.03 | 0.03 | 64 | 1004.9 |
| 20260503130724 | 13 | 199 | 3.2 | 3.2 | 0.00 | 0.03 | 0.03 | 63 | 1004.5 |
| 20260503130221 | 13 | 202 | 3.2 | 3.2 | 0.00 | 0.03 | 0.03 | 64 | 1004.9 |
| 20260503120147 | 6 | 153 | 0.0 | 0.0 | 0.00 | 0.03 | 0.03 | 99 | 1004.9 |
| 20260503110615 | 5 | 141 | 1.6 | 1.6 | 0.00 | 0.03 | 0.03 | 98 | 1004.9 |
| 20260503110112 | 6 | 166 | 0.0 | 0.0 | 0.00 | 0.03 | 0.03 | 98 | 1004.9 |
| 20260503090502 | 7 | 148 | 1.6 | 1.6 | 0.03 | 0.03 | 0.03 | 92 | 1005.9 |
| 20260503081428 | 11 | 171 | 1.6 | 1.6 | 0.00 | 0.00 | 0.00 | 68 | 1005.9 |
| 20260503080925 | 11 | 173 | 3.2 | 3.2 | 0.00 | 0.00 | 0.00 | 66 | 1006.2 |
| 20260503080422 | 11 | 165 | 1.6 | 1.6 | 0.00 | 0.00 | 0.00 | 66 | 1005.9 |
| 20260503072858 | 12 | 179 | 4.8 | 4.8 | 0.00 | 0.00 | 0.00 | 63 | 1006.2 |
| 20260503072355 | 12 | 165 | 4.8 | 4.8 | 0.00 | 0.00 | 0.00 | 64 | 1006.2 |
| 20260503071852 | 12 | 179 | 3.2 | 3.2 | 0.00 | 0.00 | 0.00 | 64 | 1006.6 |
| 20260503071349 | 12 | 177 | 3.2 | 3.2 | 0.00 | 0.00 | 0.00 | 65 | 1006.6 |
| 20260503070845 | 12 | 175 | 3.2 | 3.2 | 0.00 | 0.00 | 0.00 | 64 | 1006.6 |
| 20260503070343 | 12 | 173 | 1.6 | 3.2 | 0.00 | 0.00 | 0.00 | 64 | 1006.6 |
| 20260503060309 | 13 | 181 | 1.6 | 1.6 | 0.00 | 0.00 | 0.00 | 60 | 1007.2 |
| 20260503054755 | 13 | 176 | 3.2 | 3.2 | 0.00 | 0.00 | 0.00 | 58 | 1007.7 |
| 20260503054252 | 13 | 177 | 3.2 | 3.2 | 0.00 | 0.00 | 0.00 | 58 | 1007.7 |
| 20260503053750 | 14 | 179 | 3.2 | 3.2 | 0.00 | 0.00 | 0.00 | 57 | 1007.7 |
| 20260503053249 | 13 | 206 | 4.8 | 4.8 | 0.00 | 0.00 | 0.00 | 56 | 1008.0 |
| 20260503052744 | 14 | 169 | 1.6 | 3.2 | 0.00 | 0.00 | 0.00 | 59 | 1008.0 |
| 20260503052241 | 14 | 186 | 3.2 | 3.2 | 0.00 | 0.00 | 0.00 | 57 | 1008.0 |
| 20260503051736 | 14 | 192 | 3.2 | 3.2 | 0.00 | 0.00 | 0.00 | 58 | 1008.0 |
| 20260503051234 | 14 | 197 | 1.6 | 3.2 | 0.00 | 0.00 | 0.00 | 57 | 1008.0 |
| 20260503050730 | 14 | 195 | 1.6 | 3.2 | 0.00 | 0.00 | 0.00 | 58 | 1008.0 |
| 20260503050227 | 13 | 178 | 4.8 | 4.8 | 0.00 | 0.00 | 0.00 | 60 | 1008.4 |
| 20260503045725 | 13 | 165 | 1.6 | 3.2 | 0.00 | 0.00 | 0.00 | 61 | 1008.7 |
| 20260503045222 | 13 | 186 | 1.6 | 1.6 | 0.00 | 0.00 | 0.00 | 61 | 1008.7 |
| 20260503044718 | 13 | 190 | 1.6 | 1.6 | 0.00 | 0.00 | 0.00 | 59 | 1008.4 |
| 20260503044216 | 13 | 202 | 1.6 | 1.6 | 0.00 | 0.00 | 0.00 | 57 | 1008.4 |
| 20260503043712 | 14 | 206 | 3.2 | 3.2 | 0.00 | 0.00 | 0.00 | 56 | 1008.4 |
| 20260503043210 | 13 | 181 | 0.0 | 1.6 | 0.00 | 0.00 | 0.00 | 58 | 1008.7 |
| 20260503042706 | 13 | 199 | 3.2 | 3.2 | 0.00 | 0.00 | 0.00 | 57 | 1008.4 |
| 20260503042203 | 13 | 211 | 4.8 | 4.8 | 0.00 | 0.00 | 0.00 | 56 | 1008.4 |
| 20260503041658 | 14 | 213 | 4.8 | 4.8 | 0.00 | 0.00 | 0.00 | 56 | 1008.4 |
| 20260503041156 | 13 | 178 | 3.2 | 3.2 | 0.00 | 0.00 | 0.00 | 57 | 1008.7 |
| 20260503040654 | 13 | 184 | 3.2 | 3.2 | 0.00 | 0.00 | 0.00 | 58 | 1008.7 |
| 20260503040151 | 13 | 205 | 3.2 | 3.2 | 0.00 | 0.00 | 0.00 | 56 | 1008.4 |
| 20260503035647 | 13 | 184 | 1.6 | 1.6 | 0.00 | 0.00 | 0.00 | 56 | 1008.7 |
| 20260503035139 | 13 | 182 | 1.6 | 3.2 | 0.00 | 0.00 | 0.00 | 57 | 1008.7 |
| 20260503034637 | 13 | 184 | 1.6 | 1.6 | 0.00 | 0.00 | 0.00 | 56 | 1008.7 |
| 20260503034134 | 13 | 185 | 1.6 | 1.6 | 0.00 | 0.00 | 0.00 | 56 | 1009.0 |
| 20260503033630 | 13 | 185 | 3.2 | 3.2 | 0.00 | 0.00 | 0.00 | 56 | 1008.7 |
| 20260503033128 | 13 | 186 | 3.2 | 3.2 | 0.00 | 0.00 | 0.00 | 56 | 1009.0 |
| 20260503032627 | 13 | 181 | 3.2 | 3.2 | 0.00 | 0.00 | 0.00 | 55 | 1009.0 |
| 20260503032125 | 13 | 181 | 1.6 | 3.2 | 0.00 | 0.00 | 0.00 | 55 | 1009.0 |
| 20260503031622 | 13 | 184 | 1.6 | 1.6 | 0.00 | 0.00 | 0.00 | 54 | 1009.0 |
| 20260503031119 | 13 | 180 | 4.8 | 4.8 | 0.00 | 0.00 | 0.00 | 53 | 1009.0 |
| 20260503030615 | 13 | 179 | 3.2 | 3.2 | 0.00 | 0.00 | 0.00 | 54 | 1009.4 |
| 20260503030112 | 13 | 185 | 1.6 | 3.2 | 0.00 | 0.00 | 0.00 | 54 | 1009.4 |
| 20260503025608 | 13 | 175 | 1.6 | 1.6 | 0.00 | 0.00 | 0.00 | 53 | 1009.4 |
| 20260503025107 | 13 | 181 | 1.6 | 1.6 | 0.00 | 0.00 | 0.00 | 53 | 1009.4 |
| 20260503024602 | 14 | 183 | 4.8 | 4.8 | 0.00 | 0.00 | 0.00 | 52 | 1009.7 |
| 20260503024100 | 14 | 179 | 4.8 | 4.8 | 0.00 | 0.00 | 0.00 | 52 | 1009.4 |
| 20260503023556 | 14 | 187 | 4.8 | 4.8 | 0.00 | 0.00 | 0.00 | 51 | 1009.7 |
| 20260503023054 | 14 | 185 | 1.6 | 3.2 | 0.00 | 0.00 | 0.00 | 52 | 1009.7 |
| 20260503022550 | 14 | 188 | 1.6 | 3.2 | 0.00 | 0.00 | 0.00 | 51 | 1009.7 |
| 20260503022044 | 13 | 191 | 3.2 | 3.2 | 0.00 | 0.00 | 0.00 | 53 | 1009.7 |
| 20260503021542 | 13 | 181 | 3.2 | 3.2 | 0.00 | 0.00 | 0.00 | 52 | 1009.7 |
| 20260503021038 | 13 | 182 | 3.2 | 3.2 | 0.00 | 0.00 | 0.00 | 51 | 1009.4 |
| 20260503020536 | 13 | 179 | 1.6 | 1.6 | 0.00 | 0.00 | 0.00 | 54 | 1009.7 |
| 20260503020033 | 13 | 178 | 3.2 | 3.2 | 0.00 | 0.00 | 0.00 | 53 | 1010.0 |
| 20260503015529 | 13 | 182 | 1.6 | 1.6 | 0.00 | 0.00 | 0.00 | 56 | 1009.7 |
| 20260503015027 | 13 | 183 | 1.6 | 1.6 | 0.00 | 0.00 | 0.00 | 55 | 1009.7 |
| 20260503014522 | 13 | 175 | 0.0 | 0.0 | 0.00 | 0.00 | 0.00 | 53 | 1009.4 |
| 20260503014021 | 13 | 183 | 0.0 | 0.0 | 0.00 | 0.00 | 0.00 | 53 | 1009.4 |
| 20260503013518 | 13 | 180 | 0.0 | 0.0 | 0.00 | 0.00 | 0.00 | 52 | 1009.4 |
| 20260503013015 | 13 | 135 | 1.6 | 1.6 | 0.00 | 0.00 | 0.00 | 54 | 1009.7 |